#timestamp,LO_Frequency,Hit,StdDev 
1616306415.7,286047000.8,N
1616306435.5,286047000.9,N
1616306455.3,286047000.6,N
1616306475.2,286047002.8,N
1616306495.0,286047002.6,N
1616306495.9,286047002.6,N
1616306515.7,286047002.4,N
1616306535.6,286047000.1,N
1616306555.4,286047000.3,N
1616306575.3,286046998.2,N
1616306595.1,286047011.9,Y
1616306596.0,286046998.2,P
1616306615.8,286046999.2,N
1616306635.7,286046996.8,P
1616306655.5,286046997.5,N
1616306675.4,286046994.9,Y
1616306695.2,286046996.6,P
1616306715.0,286046996.7,P
1616306715.9,286046996.7,P
1616306735.8,286046996.9,Y
1616306755.6,286047002.8,P
1616306775.4,286047003.4,N
1616306795.3,286047003.4,N
1616306815.1,286047006.0,N
1616306835.9,286047003.3,N
1616306855.7,286047004.1,N
1616306875.5,286047005.6,N
1616306895.4,286047008.1,Y
1616306915.2,286047007.4,P
1616306935.0,286047006.2,N
1616306935.9,286047006.2,P
1616306955.8,286047008.1,Y
1616306975.6,286047007.3,P
1616306995.5,286047007.2,P
1616307015.3,286047006.1,P
1616307035.1,286047006.2,Y
1616307055.9,286047000.8,P
1616307075.7,286047001.2,N
1616307095.5,286046998.1,N
1616307115.4,286046999.4,N
1616307135.2,286046999.4,N
1616307155.1,286046998.4,N
1616307156.0,286046998.4,N
1616307175.8,286046999.6,N
1616307195.6,286046999.6,N
1616307215.5,286046999.2,N
1616307235.3,286046996.9,N
1616307255.1,286046996.7,N
1616307275.9,286046997.0,N
1616307295.7,286046997.5,N
1616307315.6,286046995.6,N
1616307335.4,286046996.1,N
1616307355.2,286046993.3,N
1616307375.1,286046994.5,N
1616307376.0,286046994.5,N
1616307395.8,286046994.7,N
1616307415.6,286046993.3,N
1616307435.5,286046996.1,N
1616307455.3,286046994.7,N
1616307475.2,286046992.4,N
1616307495.9,286046992.7,N
1616307515.7,286046993.0,N
1616307535.6,286046990.7,N
1616307555.4,286046990.3,N
1616307575.2,286046993.0,N
1616307595.1,286046990.4,N
1616307596.0,286046990.4,Y
1616307615.8,286046996.3,P
1616307635.7,286046996.1,P
1616307655.5,286046994.0,P
1616307675.3,286046994.0,Y
1616307695.2,286046998.9,P
1616307715.0,286046998.5,N
1616307715.9,286046998.5,N
1616307735.8,286046996.9,N
1616307755.6,286046997.6,N
1616307775.4,286046997.7,N
1616307795.3,286046997.7,N
1616307815.1,286046995.3,Y
1616307835.8,286047000.4,P
1616307855.7,286046999.3,N
1616307875.5,286046998.9,N
1616307895.4,286046998.8,N
1616307915.2,286047001.1,N
1616307935.0,286047001.0,N
1616307935.9,286047001.0,N
1616307955.8,286046998.6,N
1616307975.6,286047000.3,N
1616307995.4,286047000.6,N
1616308015.3,286046999.0,N
1616308035.1,286046998.8,N
1616308055.9,286046998.4,N
1616308075.7,286046999.2,N
1616308095.5,286046999.4,N
1616308115.4,286046999.6,N
1616308135.2,286046999.4,N
1616308155.0,286047000.8,N
1616308155.9,286047000.8,N
1616308175.8,286046998.4,N
1616308195.6,286046998.3,N
1616308215.5,286046999.3,N
1616308235.3,286046998.8,N
1616308255.1,286046999.2,N
1616308275.9,286046999.4,N
1616308295.7,286046997.7,N
1616308315.5,286046997.7,N
1616308335.4,286046997.9,N
1616308355.2,286046997.2,N
1616308375.0,286046995.0,Y
1616308376.0,286046995.0,P
1616308395.8,286046997.6,N
1616308415.6,286046996.8,N
1616308435.5,286046999.4,N
1616308455.3,286046999.4,N
1616308475.1,286046999.4,N
1616308495.9,286046999.6,N
1616308515.7,286046999.4,N
1616308535.5,286046998.9,N
1616308555.4,286046998.3,N
1616308575.2,286047001.1,N
1616308595.1,286047000.8,N
1616308596.0,286047000.8,N
1616308615.8,286047001.1,N
1616308635.6,286047000.4,N
1616308655.5,286046999.9,N
1616308675.3,286047000.7,N
1616308695.1,286047000.5,N
1616308715.9,286046998.6,N
1616308735.7,286046998.3,N
1616308755.6,286046999.0,N
1616308775.4,286046999.0,N
1616308795.2,286046999.1,N
1616308815.1,286046998.5,N
1616308816.0,286046998.5,N
1616308835.8,286046998.5,N
1616308855.6,286046999.2,N
1616308875.5,286046997.1,N
1616308895.3,286046999.3,N
1616308915.2,286046998.5,N
1616308935.9,286046998.3,N
1616308955.7,286046999.2,N
1616308975.6,286046999.0,N
1616308995.4,286046999.4,N
1616309015.2,286046996.9,Y
1616309035.1,286047000.8,P
1616309036.0,286047000.8,N
1616309055.8,286047002.7,P
1616309075.7,286047001.2,N
1616309095.5,286046998.1,N
1616309115.3,286047001.1,N
1616309135.2,286046999.4,N
1616309155.0,286046996.5,N
1616309155.9,286046996.5,N
1616309175.7,286046998.7,N
1616309195.6,286046999.1,N
1616309215.4,286046999.5,N
1616309235.3,286046998.6,N
1616309255.1,286046998.5,N
1616309256.0,286046998.5,N
1616309275.8,286046996.6,N
1616309295.7,286046999.0,N
1616309315.5,286046998.8,N
1616309335.3,286046999.3,N
1616309355.2,286046999.2,N
1616309375.0,286046996.9,N
1616309375.9,286046996.9,N
1616309395.8,286046999.6,N
1616309415.6,286046997.1,N
1616309435.4,286046996.9,N
1616309455.3,286046996.5,N
1616309475.1,286046999.5,N
1616309495.8,286046996.9,N
1616309515.7,286046997.9,N
1616309535.5,286046996.8,N
1616309555.4,286046997.8,N
1616309575.2,286046997.0,N
1616309595.0,286046997.2,N
1616309595.9,286046997.2,N
1616309615.8,286046995.1,Y
1616309635.6,286046999.6,P
1616309655.4,286046996.7,P
1616309675.3,286046999.5,N
1616309695.1,286046999.2,N
1616309715.9,286046996.9,N
1616309735.7,286046999.3,N
1616309755.5,286046996.5,Y
1616309775.4,286047000.8,P
1616309795.2,286047000.9,N
1616309815.0,286046998.7,N
1616309815.9,286046998.7,N
1616309835.8,286047000.6,N
1616309855.6,286046998.5,N
1616309875.5,286046999.7,N
1616309895.3,286047000.2,N
1616309915.1,286047000.5,N
1616309935.9,286047000.5,N
1616309955.7,286047000.3,N
1616309975.5,286046999.7,N
1616309995.4,286047002.1,N
